Time,TemperatureF,DewpointF,PressureIn,WindDirection,WindDirectionDegrees,WindSpeedMPH,WindSpeedGustMPH,Humidity,HourlyPrecipIn,Conditions,Clouds,dailyrainin,SoftwareType,DateUTC
2013-02-03 00:03:00,36.9,26.6,30.33,South,183,5.0,10.0,66,0.00,,---,0.00,VWS V14.01,2013-02-03 06:03:00,
2013-02-03 00:08:00,36.8,26.5,30.33,SSE,150,5.0,8.0,66,0.00,,---,0.00,VWS V14.01,2013-02-03 06:08:00,
2013-02-03 00:13:00,36.7,26.4,30.34,SSE,160,1.0,8.0,66,0.00,,---,0.00,VWS V14.01,2013-02-03 06:13:00,
2013-02-03 00:18:00,36.4,26.5,30.34,SE,134,4.0,9.0,67,0.00,,---,0.00,VWS V14.01,2013-02-03 06:18:00,
2013-02-03 00:23:00,36.3,26.4,30.34,SSE,155,2.0,11.0,67,0.00,,---,0.00,VWS V14.01,2013-02-03 06:23:00,
2013-02-03 00:28:00,36.2,26.3,30.35,SSE,166,3.0,11.0,67,0.00,,---,0.00,VWS V14.01,2013-02-03 06:28:00,
2013-02-03 00:33:00,36.1,26.6,30.35,SSE,166,2.0,11.0,68,0.00,,---,0.00,VWS V14.01,2013-02-03 06:33:00,
2013-02-03 00:38:00,36.0,26.5,30.35,SSE,149,2.0,11.0,68,0.00,,---,0.00,VWS V14.01,2013-02-03 06:38:00,
2013-02-03 00:43:00,35.9,26.4,30.35,SSE,161,3.0,11.0,68,0.00,,---,0.00,VWS V14.01,2013-02-03 06:43:00,
2013-02-03 00:48:00,35.7,26.5,30.35,SSE,149,2.0,11.0,69,0.00,,---,0.00,VWS V14.01,2013-02-03 06:48:00,
2013-02-03 00:53:00,35.4,26.3,30.35,SSE,157,4.0,11.0,69,0.00,,---,0.00,VWS V14.01,2013-02-03 06:53:00,
2013-02-03 00:58:00,35.2,26.1,30.35,SSE,151,6.0,11.0,69,0.00,,---,0.00,VWS V14.01,2013-02-03 06:58:00,
2013-02-03 01:03:00,35.2,26.1,30.35,SSE,152,6.0,13.0,69,0.00,,---,0.00,VWS V14.01,2013-02-03 07:03:00,
2013-02-03 01:08:00,35.3,25.8,30.35,SSE,165,2.0,11.0,68,0.00,,---,0.00,VWS V14.01,2013-02-03 07:08:00,
2013-02-03 01:13:00,35.2,26.1,30.35,SE,134,5.0,11.0,69,0.00,,---,0.00,VWS V14.01,2013-02-03 07:13:00,
2013-02-03 01:18:00,35.0,25.9,30.35,SSE,149,2.0,11.0,69,0.00,,---,0.00,VWS V14.01,2013-02-03 07:18:00,
2013-02-03 01:23:00,34.8,26.0,30.35,SSE,165,2.0,11.0,70,0.00,,---,0.00,VWS V14.01,2013-02-03 07:23:00,
2013-02-03 01:28:00,34.6,25.8,30.35,SSE,152,3.0,11.0,70,0.00,,---,0.00,VWS V14.01,2013-02-03 07:28:00,
2013-02-03 01:33:00,34.4,25.6,30.35,SSE,149,2.0,11.0,70,0.00,,---,0.00,VWS V14.01,2013-02-03 07:33:00,
2013-02-03 01:38:00,34.3,25.5,30.34,South,170,2.0,7.0,70,0.00,,---,0.00,VWS V14.01,2013-02-03 07:38:00,
2013-02-03 01:43:00,34.4,25.6,30.34,SE,131,5.0,10.0,70,0.00,,---,0.00,VWS V14.01,2013-02-03 07:43:00,
2013-02-03 01:48:00,34.3,25.5,30.33,SSW,204,4.0,10.0,70,0.00,,---,0.00,VWS V14.01,2013-02-03 07:48:00,
2013-02-03 01:53:00,34.3,25.5,30.33,SSE,165,3.0,10.0,70,0.00,,---,0.00,VWS V14.01,2013-02-03 07:53:00,
2013-02-03 01:58:00,34.2,25.5,30.33,SE,146,6.0,10.0,70,0.00,,---,0.00,VWS V14.01,2013-02-03 07:58:00,
2013-02-03 02:03:00,34.2,25.5,30.34,South,190,4.0,13.0,70,0.00,,---,0.00,VWS V14.01,2013-02-03 08:03:00,
2013-02-03 02:08:00,34.1,25.4,30.34,SSE,166,3.0,9.0,70,0.00,,---,0.00,VWS V14.01,2013-02-03 08:08:00,
2013-02-03 02:13:00,34.0,25.3,30.34,SE,146,5.0,10.0,70,0.00,,---,0.00,VWS V14.01,2013-02-03 08:13:00,
2013-02-03 02:18:00,33.6,25.2,30.35,SE,146,2.0,10.0,71,0.00,,---,0.00,VWS V14.01,2013-02-03 08:18:00,
2013-02-03 02:22:00,33.2,25.2,30.35,SSE,154,3.0,10.0,72,0.00,,---,0.00,VWS V14.01,2013-02-03 08:22:00,
2013-02-03 02:28:00,32.9,24.9,30.35,SSE,149,3.0,10.0,72,0.00,,---,0.00,VWS V14.01,2013-02-03 08:28:00,
2013-02-03 02:32:00,32.6,24.9,30.35,South,173,5.0,10.0,73,0.00,,---,0.00,VWS V14.01,2013-02-03 08:32:00,
2013-02-03 02:37:00,32.6,24.9,30.35,SE,142,5.0,9.0,73,0.00,,---,0.00,VWS V14.01,2013-02-03 08:37:00,
2013-02-03 02:42:00,32.2,24.9,30.36,SSE,154,1.0,9.0,74,0.00,,---,0.00,VWS V14.01,2013-02-03 08:42:00,
2013-02-03 02:47:00,31.8,24.5,30.35,SSE,166,1.0,9.0,74,0.00,,---,0.00,VWS V14.01,2013-02-03 08:47:00,
2013-02-03 02:52:00,31.5,24.5,30.36,SE,139,1.0,9.0,75,0.00,,---,0.00,VWS V14.01,2013-02-03 08:52:00,
2013-02-03 02:57:00,31.1,24.4,30.36,SE,130,2.0,9.0,76,0.00,,---,0.00,VWS V14.01,2013-02-03 08:57:00,
2013-02-03 03:02:00,31.0,24.3,30.36,SE,126,0.0,9.0,76,0.00,,---,0.00,VWS V14.01,2013-02-03 09:02:00,
2013-02-03 03:07:00,30.9,24.5,30.35,South,175,2.0,6.0,77,0.00,,---,0.00,VWS V14.01,2013-02-03 09:07:00,
2013-02-03 03:12:00,30.9,24.5,30.35,SE,145,4.0,6.0,77,0.00,,---,0.00,VWS V14.01,2013-02-03 09:12:00,
2013-02-03 03:17:00,30.9,24.5,30.35,SE,142,2.0,6.0,77,0.00,,---,0.00,VWS V14.01,2013-02-03 09:17:00,
2013-02-03 03:22:00,31.0,24.6,30.35,South,172,2.0,6.0,77,0.00,,---,0.00,VWS V14.01,2013-02-03 09:22:00,
2013-02-03 03:27:00,31.4,24.4,30.35,South,173,2.0,10.0,75,0.00,,---,0.00,VWS V14.01,2013-02-03 09:27:00,
2013-02-03 03:32:00,31.4,24.4,30.35,SSE,157,0.0,10.0,75,0.00,,---,0.00,VWS V14.01,2013-02-03 09:32:00,
2013-02-03 03:37:00,31.2,24.2,30.35,SSE,163,1.0,3.0,75,0.00,,---,0.00,VWS V14.01,2013-02-03 09:37:00,
2013-02-03 03:42:00,31.1,24.1,30.34,SE,138,2.0,5.0,75,0.00,,---,0.00,VWS V14.01,2013-02-03 09:42:00,
2013-02-03 03:47:00,31.0,24.0,30.34,SSE,166,2.0,6.0,75,0.00,,---,0.00,VWS V14.01,2013-02-03 09:47:00,
2013-02-03 03:52:00,30.9,23.9,30.33,SE,145,1.0,6.0,75,0.00,,---,0.00,VWS V14.01,2013-02-03 09:52:00,
2013-02-03 03:57:00,30.8,24.1,30.33,SE,145,2.0,6.0,76,0.00,,---,0.00,VWS V14.01,2013-02-03 09:57:00,
2013-02-03 04:02:00,30.6,24.0,30.34,SSE,148,1.0,7.0,76,0.00,,---,0.00,VWS V14.01,2013-02-03 10:02:00,
2013-02-03 04:07:00,30.4,23.8,30.34,SE,144,1.0,5.0,76,0.00,,---,0.00,VWS V14.01,2013-02-03 10:07:00,
2013-02-03 04:12:00,30.3,23.7,30.33,SE,146,0.0,5.0,76,0.00,,---,0.00,VWS V14.01,2013-02-03 10:12:00,
2013-02-03 04:17:00,30.1,23.8,30.34,SE,143,3.0,5.0,77,0.00,,---,0.00,VWS V14.01,2013-02-03 10:17:00,
2013-02-03 04:22:00,30.0,23.7,30.34,SE,138,2.0,5.0,77,0.00,,---,0.00,VWS V14.01,2013-02-03 10:22:00,
2013-02-03 04:27:00,29.8,23.5,30.34,SE,142,0.0,5.0,77,0.00,,---,0.00,VWS V14.01,2013-02-03 10:27:00,
2013-02-03 04:32:00,29.6,23.6,30.33,South,172,0.0,5.0,78,0.00,,---,0.00,VWS V14.01,2013-02-03 10:32:00,
2013-02-03 04:37:00,29.6,23.9,30.33,SSE,160,1.0,3.0,79,0.00,,---,0.00,VWS V14.01,2013-02-03 10:37:00,
2013-02-03 04:42:00,29.6,23.6,30.34,SE,128,0.0,3.0,78,0.00,,---,0.00,VWS V14.01,2013-02-03 10:42:00,
2013-02-03 04:47:00,29.3,23.3,30.33,SE,129,0.0,3.0,78,0.00,,---,0.00,VWS V14.01,2013-02-03 10:47:00,
2013-02-03 04:52:00,28.9,23.2,30.34,SE,128,0.0,3.0,79,0.00,,---,0.00,VWS V14.01,2013-02-03 10:52:00,
2013-02-03 04:57:00,28.6,23.2,30.33,SE,128,0.0,3.0,80,0.00,,---,0.00,VWS V14.01,2013-02-03 10:57:00,
2013-02-03 05:02:00,28.4,23.3,30.33,SE,130,0.0,3.0,81,0.00,,---,0.00,VWS V14.01,2013-02-03 11:02:00,
2013-02-03 05:07:00,28.2,23.1,30.33,SE,130,0.0,0.0,81,0.00,,---,0.00,VWS V14.01,2013-02-03 11:07:00,
2013-02-03 05:12:00,28.0,23.2,30.33,SE,130,0.0,0.0,82,0.00,,---,0.00,VWS V14.01,2013-02-03 11:12:00,
2013-02-03 05:17:00,27.7,22.9,30.33,SE,130,0.0,0.0,82,0.00,,---,0.00,VWS V14.01,2013-02-03 11:17:00,
2013-02-03 05:22:00,27.4,22.9,30.33,SE,130,0.0,0.0,83,0.00,,---,0.00,VWS V14.01,2013-02-03 11:22:00,
2013-02-03 05:27:00,27.1,22.9,30.33,SE,130,0.0,1.0,84,0.00,,---,0.00,VWS V14.01,2013-02-03 11:27:00,
2013-02-03 05:32:00,27.1,22.9,30.32,SE,130,0.0,1.0,84,0.00,,---,0.00,VWS V14.01,2013-02-03 11:32:00,
2013-02-03 05:37:00,27.0,22.8,30.32,SE,130,0.0,0.0,84,0.00,,---,0.00,VWS V14.01,2013-02-03 11:37:00,
2013-02-03 05:42:00,26.7,22.5,30.32,SE,130,0.0,0.0,84,0.00,,---,0.00,VWS V14.01,2013-02-03 11:42:00,
2013-02-03 05:47:00,26.5,22.6,30.32,SE,130,0.0,1.0,85,0.00,,---,0.00,VWS V14.01,2013-02-03 11:47:00,
2013-02-03 05:52:00,26.3,22.7,30.32,SE,128,0.0,1.0,86,0.00,,---,0.00,VWS V14.01,2013-02-03 11:52:00,
2013-02-03 05:57:00,26.2,22.6,30.32,SE,128,0.0,1.0,86,0.00,,---,0.00,VWS V14.01,2013-02-03 11:57:00,
2013-02-03 06:02:00,26.1,22.5,30.32,SE,128,0.0,1.0,86,0.00,,---,0.00,VWS V14.01,2013-02-03 12:02:00,
2013-02-03 06:07:00,26.0,22.4,30.32,SE,129,0.0,0.0,86,0.00,,---,0.00,VWS V14.01,2013-02-03 12:07:00,
2013-02-03 06:12:00,25.9,22.6,30.32,SE,128,1.0,1.0,87,0.00,,---,0.00,VWS V14.01,2013-02-03 12:12:00,
2013-02-03 06:17:00,26.0,22.7,30.32,SE,128,0.0,1.0,87,0.00,,---,0.00,VWS V14.01,2013-02-03 12:17:00,
2013-02-03 06:22:00,26.0,22.7,30.32,ESE,120,1.0,2.0,87,0.00,,---,0.00,VWS V14.01,2013-02-03 12:22:00,
2013-02-03 06:27:00,25.8,22.5,30.33,ESE,120,1.0,2.0,87,0.00,,---,0.00,VWS V14.01,2013-02-03 12:27:00,
2013-02-03 06:32:00,25.7,22.4,30.33,ESE,120,0.0,2.0,87,0.00,,---,0.00,VWS V14.01,2013-02-03 12:32:00,
2013-02-03 06:37:00,25.6,22.3,30.32,East,97,1.0,2.0,87,0.00,,---,0.00,VWS V14.01,2013-02-03 12:37:00,
2013-02-03 06:42:00,25.6,22.3,30.32,East,101,1.0,3.0,87,0.00,,---,0.00,VWS V14.01,2013-02-03 12:42:00,
2013-02-03 06:47:00,25.6,22.3,30.32,East,101,1.0,3.0,87,0.00,,---,0.00,VWS V14.01,2013-02-03 12:47:00,
2013-02-03 06:52:00,25.6,22.3,30.32,East,94,2.0,3.0,87,0.00,,---,0.00,VWS V14.01,2013-02-03 12:52:00,
2013-02-03 06:57:00,25.6,22.3,30.32,East,97,1.0,3.0,87,0.00,,---,0.00,VWS V14.01,2013-02-03 12:57:00,
2013-02-03 07:02:00,25.5,22.2,30.31,East,96,0.0,3.0,87,0.00,,---,0.00,VWS V14.01,2013-02-03 13:02:00,
2013-02-03 07:07:00,25.4,22.1,30.31,East,97,1.0,2.0,87,0.00,,---,0.00,VWS V14.01,2013-02-03 13:07:00,
2013-02-03 07:12:00,25.3,22.0,30.31,East,96,0.0,2.0,87,0.00,,---,0.00,VWS V14.01,2013-02-03 13:12:00,
2013-02-03 07:17:00,25.2,21.9,30.31,East,96,0.0,2.0,87,0.00,,---,0.00,VWS V14.01,2013-02-03 13:17:00,
2013-02-03 07:22:00,25.0,21.7,30.30,East,97,0.0,2.0,87,0.00,,---,0.00,VWS V14.01,2013-02-03 13:22:00,
2013-02-03 07:27:00,24.8,21.8,30.31,East,96,0.0,2.0,88,0.00,,---,0.00,VWS V14.01,2013-02-03 13:27:00,
2013-02-03 07:32:00,24.7,21.7,30.31,East,96,0.0,2.0,88,0.00,,---,0.00,VWS V14.01,2013-02-03 13:32:00,
2013-02-03 07:37:00,24.5,21.5,30.31,East,97,0.0,0.0,88,0.00,,---,0.00,VWS V14.01,2013-02-03 13:37:00,
2013-02-03 07:42:00,24.5,21.5,30.30,East,96,2.0,2.0,88,0.00,,---,0.00,VWS V14.01,2013-02-03 13:42:00,
2013-02-03 07:47:00,24.7,21.7,30.31,East,97,1.0,3.0,88,0.00,,---,0.00,VWS V14.01,2013-02-03 13:47:00,
2013-02-03 07:52:00,24.9,21.9,30.30,East,101,1.0,3.0,88,0.00,,---,0.00,VWS V14.01,2013-02-03 13:52:00,
2013-02-03 07:57:00,25.0,22.0,30.31,East,101,1.0,3.0,88,0.00,,---,0.00,VWS V14.01,2013-02-03 13:57:00,
2013-02-03 08:02:00,25.0,22.0,30.30,East,88,0.0,3.0,88,0.00,,---,0.00,VWS V14.01,2013-02-03 14:02:00,
2013-02-03 08:07:00,25.0,22.0,30.30,East,99,0.0,2.0,88,0.00,,---,0.00,VWS V14.01,2013-02-03 14:07:00,
2013-02-03 08:12:00,25.2,21.9,30.30,ESE,112,0.0,2.0,87,0.00,,---,0.00,VWS V14.01,2013-02-03 14:12:00,
2013-02-03 08:17:00,25.5,22.2,30.30,ESE,112,0.0,2.0,87,0.00,,---,0.00,VWS V14.01,2013-02-03 14:17:00,
2013-02-03 08:22:00,25.8,22.5,30.30,ESE,109,2.0,2.0,87,0.00,,---,0.00,VWS V14.01,2013-02-03 14:22:00,
2013-02-03 08:27:00,26.0,22.4,30.29,East,82,3.0,4.0,86,0.00,,---,0.00,VWS V14.01,2013-02-03 14:27:00,
2013-02-03 08:32:00,26.4,22.8,30.29,East,101,1.0,4.0,86,0.00,,---,0.00,VWS V14.01,2013-02-03 14:32:00,
2013-02-03 08:37:00,27.0,23.4,30.29,East,101,1.0,2.0,86,0.00,,---,0.00,VWS V14.01,2013-02-03 14:37:00,
2013-02-03 08:42:00,27.5,23.3,30.29,ESE,120,2.0,4.0,84,0.00,,---,0.00,VWS V14.01,2013-02-03 14:42:00,
2013-02-03 08:47:00,28.0,23.5,30.28,East,101,1.0,4.0,83,0.00,,---,0.00,VWS V14.01,2013-02-03 14:47:00,
2013-02-03 08:52:00,28.6,24.1,30.28,ESE,110,0.0,4.0,83,0.00,,---,0.00,VWS V14.01,2013-02-03 14:52:00,
2013-02-03 08:57:00,29.5,24.7,30.28,ESE,111,1.0,4.0,82,0.00,,---,0.00,VWS V14.01,2013-02-03 14:57:00,
2013-02-03 09:02:00,30.8,25.4,30.28,NE,41,2.0,4.0,80,0.00,,---,0.00,VWS V14.01,2013-02-03 15:02:00,
2013-02-03 09:07:00,31.3,25.2,30.28,East,82,0.0,3.0,78,0.00,,---,0.00,VWS V14.01,2013-02-03 15:07:00,
2013-02-03 09:12:00,31.7,25.3,30.28,East,94,1.0,3.0,77,0.00,,---,0.00,VWS V14.01,2013-02-03 15:12:00,
2013-02-03 09:17:00,32.2,25.5,30.27,East,94,0.0,3.0,76,0.00,,---,0.00,VWS V14.01,2013-02-03 15:17:00,
2013-02-03 09:22:00,32.5,25.8,30.27,East,97,1.0,3.0,76,0.00,,---,0.00,VWS V14.01,2013-02-03 15:22:00,
2013-02-03 09:27:00,32.5,25.8,30.27,East,83,3.0,3.0,76,0.00,,---,0.00,VWS V14.01,2013-02-03 15:27:00,
2013-02-03 09:32:00,32.9,26.2,30.27,East,89,1.0,5.0,76,0.00,,---,0.00,VWS V14.01,2013-02-03 15:32:00,
2013-02-03 09:37:00,33.3,26.9,30.26,East,80,8.0,8.0,77,0.00,,---,0.00,VWS V14.01,2013-02-03 15:37:00,
2013-02-03 09:42:00,33.3,26.6,30.26,NNE,27,3.0,8.0,76,0.00,,---,0.00,VWS V14.01,2013-02-03 15:42:00,
2013-02-03 09:47:00,33.7,27.0,30.26,ENE,67,5.0,9.0,76,0.00,,---,0.00,VWS V14.01,2013-02-03 15:47:00,
2013-02-03 09:52:00,34.2,27.4,30.26,East,85,2.0,9.0,76,0.00,,---,0.00,VWS V14.01,2013-02-03 15:52:00,
2013-02-03 09:57:00,34.8,27.4,30.25,East,101,2.0,9.0,74,0.00,,---,0.00,VWS V14.01,2013-02-03 15:57:00,
2013-02-03 10:02:00,35.4,27.6,30.25,ENE,66,6.0,9.0,73,0.00,,---,0.00,VWS V14.01,2013-02-03 16:02:00,
2013-02-03 10:07:00,35.9,27.4,30.25,East,97,7.0,9.0,71,0.00,,---,0.00,VWS V14.01,2013-02-03 16:07:00,
2013-02-03 10:12:00,36.1,27.3,30.25,East,101,3.0,11.0,70,0.00,,---,0.00,VWS V14.01,2013-02-03 16:12:00,
2013-02-03 10:17:00,36.6,27.4,30.24,East,80,3.0,12.0,69,0.00,,---,0.00,VWS V14.01,2013-02-03 16:17:00,
2013-02-03 10:22:00,37.0,27.1,30.24,ENE,60,5.0,12.0,67,0.00,,---,0.00,VWS V14.01,2013-02-03 16:22:00,
2013-02-03 10:27:00,37.4,26.7,30.23,ENE,61,6.0,12.0,65,0.00,,---,0.00,VWS V14.01,2013-02-03 16:27:00,
2013-02-03 10:32:00,37.8,27.5,30.23,East,83,5.0,12.0,66,0.00,,---,0.00,VWS V14.01,2013-02-03 16:32:00,
2013-02-03 10:37:00,38.2,27.1,30.23,ENE,58,6.0,10.0,64,0.00,,---,0.00,VWS V14.01,2013-02-03 16:37:00,
2013-02-03 10:42:00,38.7,27.2,30.23,ENE,59,6.0,11.0,63,0.00,,---,0.00,VWS V14.01,2013-02-03 16:42:00,
2013-02-03 10:47:00,38.9,27.4,30.23,ENE,62,7.0,11.0,63,0.00,,---,0.00,VWS V14.01,2013-02-03 16:47:00,
2013-02-03 10:52:00,39.1,27.6,30.22,East,87,9.0,15.0,63,0.00,,---,0.00,VWS V14.01,2013-02-03 16:52:00,
2013-02-03 10:57:00,39.0,27.5,30.22,ENE,76,13.0,17.0,63,0.00,,---,0.00,VWS V14.01,2013-02-03 16:57:00,
2013-02-03 11:02:00,39.3,27.8,30.22,East,80,6.0,17.0,63,0.00,,---,0.00,VWS V14.01,2013-02-03 17:02:00,
2013-02-03 11:07:00,39.3,27.8,30.21,ENE,67,11.0,18.0,63,0.00,,---,0.00,VWS V14.01,2013-02-03 17:07:00,
2013-02-03 11:12:00,39.5,28.0,30.21,ESE,103,4.0,18.0,63,0.00,,---,0.00,VWS V14.01,2013-02-03 17:12:00,
2013-02-03 11:17:00,40.0,28.0,30.21,ENE,67,12.0,18.0,62,0.00,,---,0.00,VWS V14.01,2013-02-03 17:17:00,
2013-02-03 11:22:00,40.1,28.5,30.21,East,87,8.0,18.0,63,0.00,,---,0.00,VWS V14.01,2013-02-03 17:22:00,
2013-02-03 11:27:00,40.5,28.9,30.20,East,83,4.0,19.0,63,0.00,,---,0.00,VWS V14.01,2013-02-03 17:27:00,
2013-02-03 11:32:00,40.7,28.7,30.20,East,83,14.0,19.0,62,0.00,,---,0.00,VWS V14.01,2013-02-03 17:32:00,
2013-02-03 11:37:00,40.9,28.9,30.20,ENE,63,8.0,17.0,62,0.00,,---,0.00,VWS V14.01,2013-02-03 17:37:00,
2013-02-03 11:42:00,41.2,29.2,30.19,East,81,9.0,17.0,62,0.00,,---,0.00,VWS V14.01,2013-02-03 17:42:00,
2013-02-03 11:47:00,41.1,29.1,30.19,ENE,62,11.0,17.0,62,0.00,,---,0.00,VWS V14.01,2013-02-03 17:47:00,
2013-02-03 11:52:00,41.7,30.0,30.19,East,82,9.0,17.0,63,0.00,,---,0.00,VWS V14.01,2013-02-03 17:52:00,
2013-02-03 11:57:00,42.1,29.6,30.18,ESE,122,11.0,17.0,61,0.00,,---,0.00,VWS V14.01,2013-02-03 17:57:00,
2013-02-03 12:02:00,42.0,28.7,30.18,East,87,9.0,18.0,59,0.00,,---,0.00,VWS V14.01,2013-02-03 18:02:00,
2013-02-03 12:07:00,42.3,29.0,30.18,ESE,118,6.0,16.0,59,0.00,,---,0.00,VWS V14.01,2013-02-03 18:07:00,
2013-02-03 12:12:00,42.7,29.4,30.17,East,83,8.0,16.0,59,0.00,,---,0.00,VWS V14.01,2013-02-03 18:12:00,
2013-02-03 12:17:00,42.9,29.2,30.17,East,85,13.0,20.0,58,0.00,,---,0.00,VWS V14.01,2013-02-03 18:17:00,
2013-02-03 12:22:00,43.0,29.2,30.17,ENE,77,20.0,20.0,58,0.00,,---,0.00,VWS V14.01,2013-02-03 18:22:00,
2013-02-03 12:27:00,43.3,30.0,30.17,ESE,113,7.0,20.0,59,0.00,,---,0.00,VWS V14.01,2013-02-03 18:27:00,
2013-02-03 12:32:00,43.7,29.5,30.16,NE,50,12.0,20.0,57,0.00,,---,0.00,VWS V14.01,2013-02-03 18:32:00,
2013-02-03 12:37:00,43.8,29.1,30.16,East,84,7.0,20.0,56,0.00,,---,0.00,VWS V14.01,2013-02-03 18:37:00,
2013-02-03 12:42:00,43.8,29.6,30.15,East,83,7.0,20.0,57,0.00,,---,0.00,VWS V14.01,2013-02-03 18:42:00,
2013-02-03 12:47:00,44.0,29.8,30.15,East,87,14.0,20.0,57,0.00,,---,0.00,VWS V14.01,2013-02-03 18:47:00,
2013-02-03 12:52:00,44.1,29.9,30.15,ENE,74,10.0,20.0,57,0.00,,---,0.00,VWS V14.01,2013-02-03 18:52:00,
2013-02-03 12:57:00,44.5,30.2,30.14,East,101,7.0,20.0,57,0.00,,---,0.00,VWS V14.01,2013-02-03 18:57:00,
2013-02-03 13:02:00,44.6,29.5,30.14,East,87,10.0,20.0,55,0.00,,---,0.00,VWS V14.01,2013-02-03 19:02:00,
2013-02-03 13:07:00,44.8,30.1,30.13,East,98,8.0,14.0,56,0.00,,---,0.00,VWS V14.01,2013-02-03 19:07:00,
2013-02-03 13:12:00,45.1,30.4,30.13,ESE,106,6.0,18.0,56,0.00,,---,0.00,VWS V14.01,2013-02-03 19:12:00,
2013-02-03 13:17:00,45.5,30.3,30.13,ENE,75,17.0,18.0,55,0.00,,---,0.00,VWS V14.01,2013-02-03 19:17:00,
2013-02-03 13:22:00,45.4,30.2,30.12,ENE,71,12.0,24.0,55,0.00,,---,0.00,VWS V14.01,2013-02-03 19:22:00,
2013-02-03 13:27:00,45.4,30.2,30.12,ENE,62,6.0,24.0,55,0.00,,---,0.00,VWS V14.01,2013-02-03 19:27:00,
2013-02-03 13:32:00,45.7,30.0,30.12,East,83,13.0,24.0,54,0.00,,---,0.00,VWS V14.01,2013-02-03 19:32:00,
2013-02-03 13:37:00,46.0,29.8,30.11,East,80,7.0,16.0,53,0.00,,---,0.00,VWS V14.01,2013-02-03 19:37:00,
2013-02-03 13:42:00,46.4,29.3,30.10,East,80,5.0,16.0,51,0.00,,---,0.00,VWS V14.01,2013-02-03 19:42:00,
2013-02-03 13:47:00,46.6,29.5,30.10,East,99,12.0,17.0,51,0.00,,---,0.00,VWS V14.01,2013-02-03 19:47:00,
2013-02-03 13:52:00,46.7,29.5,30.09,ESE,110,6.0,17.0,51,0.00,,---,0.00,VWS V14.01,2013-02-03 19:52:00,
2013-02-03 13:57:00,47.0,29.3,30.09,East,90,7.0,17.0,50,0.00,,---,0.00,VWS V14.01,2013-02-03 19:57:00,
2013-02-03 14:02:00,46.9,29.2,30.09,NE,41,6.0,17.0,50,0.00,,---,0.00,VWS V14.01,2013-02-03 20:02:00,
2013-02-03 14:07:00,46.9,30.2,30.08,North,4,8.0,16.0,52,0.00,,---,0.00,VWS V14.01,2013-02-03 20:07:00,
2013-02-03 14:12:00,47.1,30.4,30.08,East,82,10.0,16.0,52,0.00,,---,0.00,VWS V14.01,2013-02-03 20:12:00,
2013-02-03 14:17:00,47.0,30.8,30.07,SE,144,8.0,20.0,53,0.00,,---,0.00,VWS V14.01,2013-02-03 20:17:00,
2013-02-03 14:22:00,47.0,30.8,30.07,East,82,11.0,20.0,53,0.00,,---,0.00,VWS V14.01,2013-02-03 20:22:00,
2013-02-03 14:27:00,46.8,30.6,30.06,East,91,4.0,20.0,53,0.00,,---,0.00,VWS V14.01,2013-02-03 20:27:00,
2013-02-03 14:32:00,46.9,30.7,30.06,NE,50,14.0,20.0,53,0.00,,---,0.00,VWS V14.01,2013-02-03 20:32:00,
2013-02-03 14:37:00,47.0,31.2,30.06,ENE,72,9.0,15.0,54,0.00,,---,0.00,VWS V14.01,2013-02-03 20:37:00,
2013-02-03 14:42:00,47.1,30.4,30.06,East,83,13.0,18.0,52,0.00,,---,0.00,VWS V14.01,2013-02-03 20:42:00,
2013-02-03 14:47:00,47.1,30.4,30.05,East,97,8.0,18.0,52,0.00,,---,0.00,VWS V14.01,2013-02-03 20:47:00,
2013-02-03 14:52:00,47.2,31.0,30.05,East,85,15.0,18.0,53,0.00,,---,0.00,VWS V14.01,2013-02-03 20:52:00,
2013-02-03 14:57:00,47.3,30.6,30.05,East,79,13.0,18.0,52,0.00,,---,0.00,VWS V14.01,2013-02-03 20:57:00,
2013-02-03 15:02:00,47.4,30.7,30.05,East,97,8.0,18.0,52,0.00,,---,0.00,VWS V14.01,2013-02-03 21:02:00,
2013-02-03 15:07:00,47.7,31.0,30.05,ENE,61,14.0,14.0,52,0.00,,---,0.00,VWS V14.01,2013-02-03 21:07:00,
2013-02-03 15:12:00,47.7,30.5,30.05,East,82,13.0,16.0,51,0.00,,---,0.00,VWS V14.01,2013-02-03 21:12:00,
2013-02-03 15:17:00,47.7,30.0,30.04,East,99,8.0,19.0,50,0.00,,---,0.00,VWS V14.01,2013-02-03 21:17:00,
2013-02-03 15:22:00,47.9,30.7,30.04,East,82,12.0,19.0,51,0.00,,---,0.00,VWS V14.01,2013-02-03 21:22:00,
2013-02-03 15:27:00,47.9,30.2,30.04,East,82,13.0,19.0,50,0.00,,---,0.00,VWS V14.01,2013-02-03 21:27:00,
2013-02-03 15:32:00,47.8,30.6,30.04,East,83,4.0,19.0,51,0.00,,---,0.00,VWS V14.01,2013-02-03 21:32:00,
2013-02-03 15:37:00,47.6,30.9,30.04,East,84,7.0,17.0,52,0.00,,---,0.00,VWS V14.01,2013-02-03 21:37:00,
2013-02-03 15:42:00,47.4,30.7,30.03,NE,36,8.0,17.0,52,0.00,,---,0.00,VWS V14.01,2013-02-03 21:42:00,
2013-02-03 15:47:00,47.4,30.2,30.03,East,87,5.0,17.0,51,0.00,,---,0.00,VWS V14.01,2013-02-03 21:47:00,
2013-02-03 15:52:00,47.4,30.7,30.03,East,83,6.0,17.0,52,0.00,,---,0.00,VWS V14.01,2013-02-03 21:52:00,
2013-02-03 15:57:00,47.2,31.0,30.02,East,89,8.0,17.0,53,0.00,,---,0.00,VWS V14.01,2013-02-03 21:57:00,
2013-02-03 16:02:00,46.9,31.1,30.02,East,94,5.0,20.0,54,0.00,,---,0.00,VWS V14.01,2013-02-03 22:02:00,
2013-02-03 16:07:00,46.8,31.5,30.01,East,94,6.0,14.0,55,0.00,,---,0.00,VWS V14.01,2013-02-03 22:07:00,
2013-02-03 16:12:00,46.6,31.3,30.01,ESE,105,5.0,14.0,55,0.00,,---,0.00,VWS V14.01,2013-02-03 22:12:00,
2013-02-03 16:17:00,46.5,31.7,30.01,East,85,8.0,16.0,56,0.00,,---,0.00,VWS V14.01,2013-02-03 22:17:00,
2013-02-03 16:22:00,46.3,31.5,30.01,East,94,5.0,16.0,56,0.00,,---,0.00,VWS V14.01,2013-02-03 22:22:00,
2013-02-03 16:27:00,46.2,31.4,30.01,East,82,10.0,16.0,56,0.00,,---,0.00,VWS V14.01,2013-02-03 22:27:00,
2013-02-03 16:32:00,46.1,31.3,30.01,ENE,65,9.0,16.0,56,0.00,,---,0.00,VWS V14.01,2013-02-03 22:32:00,
2013-02-03 16:37:00,46.0,31.6,30.01,East,94,7.0,14.0,57,0.00,,---,0.00,VWS V14.01,2013-02-03 22:37:00,
2013-02-03 16:42:00,45.8,31.5,30.01,East,81,4.0,14.0,57,0.00,,---,0.00,VWS V14.01,2013-02-03 22:42:00,
2013-02-03 16:47:00,45.6,31.3,30.01,NE,42,8.0,14.0,57,0.00,,---,0.00,VWS V14.01,2013-02-03 22:47:00,
2013-02-03 16:52:00,45.5,31.2,30.00,ESE,114,5.0,14.0,57,0.00,,---,0.00,VWS V14.01,2013-02-03 22:52:00,
2013-02-03 16:57:00,45.3,31.4,30.01,ENE,75,7.0,14.0,58,0.00,,---,0.00,VWS V14.01,2013-02-03 22:57:00,
2013-02-03 17:02:00,45.2,31.7,30.01,ENE,62,7.0,14.0,59,0.00,,---,0.00,VWS V14.01,2013-02-03 23:02:00,
2013-02-03 17:07:00,45.0,31.5,30.00,East,96,2.0,7.0,59,0.00,,---,0.00,VWS V14.01,2013-02-03 23:07:00,
2013-02-03 17:12:00,44.8,31.4,30.00,East,89,5.0,8.0,59,0.00,,---,0.00,VWS V14.01,2013-02-03 23:12:00,
2013-02-03 17:17:00,44.6,31.6,30.00,East,79,4.0,8.0,60,0.00,,---,0.00,VWS V14.01,2013-02-03 23:17:00,
2013-02-03 17:22:00,44.4,31.4,30.00,East,83,2.0,8.0,60,0.00,,---,0.00,VWS V14.01,2013-02-03 23:22:00,
2013-02-03 17:27:00,44.1,31.5,29.99,East,87,3.0,8.0,61,0.00,,---,0.00,VWS V14.01,2013-02-03 23:27:00,
2013-02-03 17:31:00,43.7,31.5,29.99,East,83,5.0,8.0,62,0.00,,---,0.00,VWS V14.01,2013-02-03 23:31:00,
2013-02-03 17:36:00,43.4,31.3,29.99,East,84,2.0,6.0,62,0.00,,---,0.00,VWS V14.01,2013-02-03 23:36:00,
2013-02-03 17:41:00,43.1,31.4,29.98,ENE,71,4.0,6.0,63,0.00,,---,0.00,VWS V14.01,2013-02-03 23:41:00,
2013-02-03 17:47:00,42.9,31.6,29.98,East,80,4.0,8.0,64,0.00,,---,0.00,VWS V14.01,2013-02-03 23:47:00,
2013-02-03 17:52:00,42.9,31.6,29.98,East,89,3.0,9.0,64,0.00,,---,0.00,VWS V14.01,2013-02-03 23:52:00,
2013-02-03 17:57:00,42.7,31.4,29.98,East,96,2.0,9.0,64,0.00,,---,0.00,VWS V14.01,2013-02-03 23:57:00,
2013-02-03 18:02:00,42.5,31.2,29.98,East,98,2.0,9.0,64,0.00,,---,0.00,VWS V14.01,2013-02-04 00:02:00,
2013-02-03 18:07:00,42.2,31.3,29.98,East,96,3.0,5.0,65,0.00,,---,0.00,VWS V14.01,2013-02-04 00:07:00,
2013-02-03 18:12:00,41.9,31.0,29.97,ENE,60,2.0,5.0,65,0.00,,---,0.00,VWS V14.01,2013-02-04 00:12:00,
2013-02-03 18:17:00,41.9,31.4,29.98,East,92,1.0,5.0,66,0.00,,---,0.00,VWS V14.01,2013-02-04 00:17:00,
2013-02-03 18:22:00,41.9,31.0,29.98,East,90,0.0,5.0,65,0.00,,---,0.00,VWS V14.01,2013-02-04 00:22:00,
2013-02-03 18:27:00,41.7,31.2,29.98,ENE,60,2.0,5.0,66,0.00,,---,0.00,VWS V14.01,2013-02-04 00:27:00,
2013-02-03 18:32:00,41.5,31.4,29.98,ENE,62,3.0,6.0,67,0.00,,---,0.00,VWS V14.01,2013-02-04 00:32:00,
2013-02-03 18:37:00,41.3,31.2,29.98,East,80,2.0,4.0,67,0.00,,---,0.00,VWS V14.01,2013-02-04 00:37:00,
2013-02-03 18:42:00,41.2,31.1,29.98,East,87,2.0,5.0,67,0.00,,---,0.00,VWS V14.01,2013-02-04 00:42:00,
2013-02-03 18:47:00,41.2,31.1,29.97,East,84,4.0,6.0,67,0.00,,---,0.00,VWS V14.01,2013-02-04 00:47:00,
2013-02-03 18:52:00,41.4,31.3,29.97,ENE,75,4.0,8.0,67,0.00,,---,0.00,VWS V14.01,2013-02-04 00:52:00,
2013-02-03 18:57:00,41.2,31.1,29.97,East,85,4.0,8.0,67,0.00,,---,0.00,VWS V14.01,2013-02-04 00:57:00,
2013-02-03 19:02:00,41.0,30.9,29.97,ENE,78,4.0,8.0,67,0.00,,---,0.00,VWS V14.01,2013-02-04 01:02:00,
2013-02-03 19:07:00,40.9,30.8,29.97,East,92,5.0,8.0,67,0.00,,---,0.00,VWS V14.01,2013-02-04 01:07:00,
2013-02-03 19:12:00,40.9,30.8,29.97,East,96,3.0,8.0,67,0.00,,---,0.00,VWS V14.01,2013-02-04 01:12:00,
2013-02-03 19:17:00,40.8,30.7,29.97,East,94,3.0,9.0,67,0.00,,---,0.00,VWS V14.01,2013-02-04 01:17:00,
2013-02-03 19:22:00,40.7,30.6,29.97,East,88,4.0,9.0,67,0.00,,---,0.00,VWS V14.01,2013-02-04 01:22:00,
2013-02-03 19:27:00,40.6,30.5,29.96,ENE,69,5.0,9.0,67,0.00,,---,0.00,VWS V14.01,2013-02-04 01:27:00,
2013-02-03 19:32:00,40.5,30.4,29.96,East,81,6.0,9.0,67,0.00,,---,0.00,VWS V14.01,2013-02-04 01:32:00,
2013-02-03 19:37:00,40.4,30.3,29.96,ENE,75,5.0,8.0,67,0.00,,---,0.00,VWS V14.01,2013-02-04 01:37:00,
2013-02-03 19:42:00,40.4,30.3,29.96,ENE,78,6.0,11.0,67,0.00,,---,0.00,VWS V14.01,2013-02-04 01:42:00,
2013-02-03 19:47:00,40.3,30.2,29.96,East,84,5.0,11.0,67,0.00,,---,0.00,VWS V14.01,2013-02-04 01:47:00,
2013-02-03 19:52:00,40.2,30.1,29.95,East,82,5.0,11.0,67,0.00,,---,0.00,VWS V14.01,2013-02-04 01:52:00,
2013-02-03 19:56:00,40.0,30.3,29.95,ENE,74,6.0,11.0,68,0.00,,---,0.00,VWS V14.01,2013-02-04 01:56:00,
2013-02-03 20:01:00,40.0,30.3,29.95,East,94,5.0,11.0,68,0.00,,---,0.00,VWS V14.01,2013-02-04 02:01:00,
2013-02-03 20:06:00,39.9,30.2,29.95,ENE,64,7.0,10.0,68,0.00,,---,0.00,VWS V14.01,2013-02-04 02:06:00,
2013-02-03 20:11:00,39.8,30.1,29.95,ENE,78,7.0,10.0,68,0.00,,---,0.00,VWS V14.01,2013-02-04 02:11:00,
2013-02-03 20:16:00,39.7,30.0,29.95,East,94,3.0,10.0,68,0.00,,---,0.00,VWS V14.01,2013-02-04 02:16:00,
2013-02-03 20:21:00,39.6,30.3,29.95,ESE,117,3.0,10.0,69,0.00,,---,0.00,VWS V14.01,2013-02-04 02:21:00,
2013-02-03 20:26:00,39.4,30.1,29.95,East,82,8.0,10.0,69,0.00,,---,0.00,VWS V14.01,2013-02-04 02:26:00,
2013-02-03 20:31:00,39.3,30.0,29.95,East,90,7.0,10.0,69,0.00,,---,0.00,VWS V14.01,2013-02-04 02:31:00,
2013-02-03 20:36:00,39.3,30.0,29.95,ENE,76,7.0,9.0,69,0.00,,---,0.00,VWS V14.01,2013-02-04 02:36:00,
2013-02-03 20:41:00,39.3,30.0,29.95,East,80,5.0,9.0,69,0.00,,---,0.00,VWS V14.01,2013-02-04 02:41:00,
2013-02-03 20:46:00,39.4,30.1,29.95,ENE,75,8.0,9.0,69,0.00,,---,0.00,VWS V14.01,2013-02-04 02:46:00,
2013-02-03 20:51:00,39.5,30.2,29.95,ENE,64,4.0,9.0,69,0.00,,---,0.00,VWS V14.01,2013-02-04 02:51:00,
2013-02-03 20:56:00,39.5,30.2,29.95,East,92,7.0,9.0,69,0.00,,---,0.00,VWS V14.01,2013-02-04 02:56:00,
2013-02-03 21:01:00,39.6,30.3,29.94,East,96,4.0,9.0,69,0.00,,---,0.00,VWS V14.01,2013-02-04 03:01:00,
2013-02-03 21:06:00,39.5,30.2,29.94,ENE,73,7.0,9.0,69,0.00,,---,0.00,VWS V14.01,2013-02-04 03:06:00,
2013-02-03 21:11:00,39.7,30.4,29.94,East,89,3.0,10.0,69,0.00,,---,0.00,VWS V14.01,2013-02-04 03:11:00,
2013-02-03 21:16:00,39.6,30.3,29.94,East,87,4.0,10.0,69,0.00,,---,0.00,VWS V14.01,2013-02-04 03:16:00,
2013-02-03 21:21:00,39.5,30.2,29.94,ENE,76,5.0,10.0,69,0.00,,---,0.00,VWS V14.01,2013-02-04 03:21:00,
2013-02-03 21:26:00,39.6,30.3,29.94,ESE,103,3.0,10.0,69,0.00,,---,0.00,VWS V14.01,2013-02-04 03:26:00,
2013-02-03 21:31:00,39.6,29.9,29.94,ENE,78,3.0,10.0,68,0.00,,---,0.00,VWS V14.01,2013-02-04 03:31:00,
2013-02-03 21:36:00,39.6,29.9,29.94,SE,124,2.0,5.0,68,0.00,,---,0.00,VWS V14.01,2013-02-04 03:36:00,
2013-02-03 21:41:00,39.5,29.8,29.94,ESE,113,2.0,5.0,68,0.00,,---,0.00,VWS V14.01,2013-02-04 03:41:00,
2013-02-03 21:46:00,39.3,30.0,29.94,ESE,119,1.0,5.0,69,0.00,,---,0.00,VWS V14.01,2013-02-04 03:46:00,
2013-02-03 21:51:00,39.1,30.2,29.94,ESE,120,2.0,5.0,70,0.00,,---,0.00,VWS V14.01,2013-02-04 03:51:00,
2013-02-03 21:56:00,38.9,30.0,29.94,ESE,106,5.0,7.0,70,0.00,,---,0.00,VWS V14.01,2013-02-04 03:56:00,
2013-02-03 22:01:00,38.8,29.9,29.93,East,83,3.0,7.0,70,0.00,,---,0.00,VWS V14.01,2013-02-04 04:01:00,
2013-02-03 22:06:00,38.8,29.9,29.93,ESE,106,3.0,4.0,70,0.00,,---,0.00,VWS V14.01,2013-02-04 04:06:00,
2013-02-03 22:11:00,38.7,29.8,29.93,East,92,2.0,7.0,70,0.00,,---,0.00,VWS V14.01,2013-02-04 04:11:00,
2013-02-03 22:16:00,38.6,30.0,29.93,ESE,117,2.0,7.0,71,0.00,,---,0.00,VWS V14.01,2013-02-04 04:16:00,
2013-02-03 22:21:00,38.5,29.9,29.93,ESE,118,2.0,7.0,71,0.00,,---,0.00,VWS V14.01,2013-02-04 04:21:00,
2013-02-03 22:26:00,38.4,29.8,29.93,ESE,120,1.0,7.0,71,0.00,,---,0.00,VWS V14.01,2013-02-04 04:26:00,
2013-02-03 22:31:00,38.3,29.7,29.93,ESE,120,0.0,7.0,71,0.00,,---,0.00,VWS V14.01,2013-02-04 04:31:00,
2013-02-03 22:36:00,38.2,29.6,29.92,ESE,119,1.0,2.0,71,0.00,,---,0.00,VWS V14.01,2013-02-04 04:36:00,
2013-02-03 22:41:00,38.0,29.8,29.92,ESE,120,1.0,2.0,72,0.00,,---,0.00,VWS V14.01,2013-02-04 04:41:00,
2013-02-03 22:46:00,37.8,29.9,29.93,SE,125,1.0,3.0,73,0.00,,---,0.00,VWS V14.01,2013-02-04 04:46:00,
2013-02-03 22:51:00,37.6,29.7,29.92,ESE,123,1.0,3.0,73,0.00,,---,0.00,VWS V14.01,2013-02-04 04:51:00,
2013-02-03 22:56:00,37.4,29.5,29.92,SE,124,1.0,3.0,73,0.00,,---,0.00,VWS V14.01,2013-02-04 04:56:00,
2013-02-03 23:00:00,37.3,29.8,29.92,ESE,118,2.0,3.0,74,0.00,,---,0.00,VWS V14.01,2013-02-04 05:00:00,
2013-02-03 23:01:00,37.3,29.8,29.92,ESE,117,3.0,3.0,74,0.00,,---,0.00,VWS V14.01,2013-02-04 05:01:00,
2013-02-03 23:03:00,37.3,29.8,29.92,ESE,123,2.0,3.0,74,0.00,,---,0.00,VWS V14.01,2013-02-04 05:03:00,
2013-02-03 23:08:00,37.3,29.8,29.93,SE,125,1.0,4.0,74,0.00,,---,0.00,VWS V14.01,2013-02-04 05:08:00,
2013-02-03 23:13:00,37.2,29.7,29.93,SE,127,1.0,4.0,74,0.00,,---,0.00,VWS V14.01,2013-02-04 05:13:00,
2013-02-03 23:18:00,36.9,29.4,29.92,SE,126,1.0,4.0,74,0.00,,---,0.00,VWS V14.01,2013-02-04 05:18:00,
2013-02-03 23:23:00,36.7,29.5,29.92,ESE,120,3.0,5.0,75,0.00,,---,0.00,VWS V14.01,2013-02-04 05:23:00,
2013-02-03 23:28:00,36.6,29.8,29.92,SE,133,3.0,5.0,76,0.00,,---,0.00,VWS V14.01,2013-02-04 05:28:00,
2013-02-03 23:33:00,36.4,29.6,29.93,SE,134,3.0,5.0,76,0.00,,---,0.00,VWS V14.01,2013-02-04 05:33:00,
2013-02-03 23:38:00,36.1,29.3,29.93,SE,127,2.0,4.0,76,0.00,,---,0.00,VWS V14.01,2013-02-04 05:38:00,
2013-02-03 23:43:00,35.7,29.2,29.93,SE,139,3.0,5.0,77,0.00,,---,0.00,VWS V14.01,2013-02-04 05:43:00,
2013-02-03 23:48:00,35.6,29.4,29.93,SE,125,1.0,5.0,78,0.00,,---,0.00,VWS V14.01,2013-02-04 05:48:00,
2013-02-03 23:53:00,35.5,29.3,29.92,ESE,120,0.0,5.0,78,0.00,,---,0.00,VWS V14.01,2013-02-04 05:53:00,
2013-02-03 23:58:00,35.6,29.4,29.92,ESE,106,3.0,5.0,78,0.00,,---,0.00,VWS V14.01,2013-02-04 05:58:00,